Regional Weather Roundup
Issued by NWS

Home | Current Version | Previous Version | Graphics & Text | Print | Product List | Glossary On
Versions: 1 2 3 4 5 6 7 8 9 10 11 12 13 14 15 16 17 18 19 20 21 22 23 24 25 26 27 28 29 30 31 32 33 34 35 36 37 38 39 40 41 42 43 44 45 46 47 48 49 50
000
ASUS43 KFSD 230010
RWRSD

WEATHER ROUNDUP FOR SOUTH DAKOTA
NATIONAL WEATHER SERVICE SIOUX FALLS SD
700 PM CDT SAT APR 22 2017

NOTE: "FAIR" INDICATES FEW OR NO CLOUDS BELOW 12,000 FEET WITH NO
SIGNIFICANT WEATHER AND/OR OBSTRUCTIONS TO VISIBILITY.


SDZ001>005-009-010-012>017-230100-
NORTHWEST AND NORTH CENTRAL SOUTH DAKOTA

CITY           SKY/WX    TMP DP  RH WIND       PRES   REMARKS
BUFFALO          N/A     62  39  42 S13       30.01F
FAITH            N/A     64  38  38 S15       30.08F
MOBRIDGE       SUNNY     70  36  28 SW14      30.04F
$$

SDZ012>016-024>037-041>051-057-063-072>074-230100-
SOUTHWEST AND SOUTH CENTRAL SOUTH DAKOTA

CITY           SKY/WX    TMP DP  RH WIND       PRES   REMARKS
RAPID CTY ARPT MOSUNNY   64  32  30 S18       30.08F
PIERRE         SUNNY     67  34  29 SW14      30.09F
CUSTER         SUNNY     53  27  36 SW12G21   30.14F
ELLSWORTH AFB  PTSUNNY   66  32  28 S18       30.06F HAZE
PHILIP         SUNNY     66  36  32 SW10      30.10F
PINE RIDGE     SUNNY     64  30  27 S12       30.14F
SPEARFISH      FAIR      59  39  47 SE7G15    30.08F
WINNER         FAIR      67  33  28 S9        30.16F
$$

SDZ004>011-016>023-039-040-230100-
NORTHEAST SOUTH DAKOTA

CITY           SKY/WX    TMP DP  RH WIND       PRES   REMARKS
ABERDEEN       SUNNY     68  24  19 SW15      30.08F
WATERTOWN      SUNNY     64  35  34 SW9       30.13F
BROOKINGS      SUNNY     64  35  34 W13       30.16F
SISSETON         N/A     68  36  30 W16       30.07F
$$

SDZ017-020-022-023-036>040-048>070-230100-
SOUTHEAST SOUTH DAKOTA

CITY           SKY/WX    TMP DP  RH WIND       PRES   REMARKS
SIOUX FALLS    MOSUNNY   66  37  34 SW5       30.16F
HURON          SUNNY     66  33  29 SW10      30.14F
MITCHELL       SUNNY     66  37  34 W8        30.17F
YANKTON        SUNNY     64  34  32 W5        30.17F
$$

ABBREVIATIONS USED IN REMARKS
   TC - TEMPERATURE IN CELSIUS
  WCI - WIND CHILL INDEX
   HX - HEAT INDEX
  VSB - VISIBILITY




USA.gov is the U.S. government's official web portal to all federal, state and local government web resources and services.